EW5635 Weather Reports


time (UTC)temp
C
wind
direction
speed
KPH
gust
KPH
rain 1hr
cm
rain 24hr
cm
rain mn
cm
humidity
%
barometer
mb
20260510043604 12 4 1.6 3.2 0.03 0.61 0.61 98 1008.8
20260510042541 12 23 0.0 3.2 0.03 0.61 0.61 98 1009.1
20260510041538 12 0.0 0.0 0.03 0.61 0.61 98 1009.1
20260510040555 12 0.0 0.0 0.05 0.61 0.61 98 1009.1
20260510035532 12 0.0 0.0 0.05 0.61 0.61 98 1009.1
20260510034530 12 0.0 0.0 0.03 0.56 0.56 98 1009.1
20260510033527 12 338 0.0 3.2 0.05 0.56 0.56 98 1009.2
20260510032525 12 340 1.6 6.4 0.05 0.56 0.56 98 1009.5
20260510031522 12 0.0 3.2 0.05 0.56 0.56 98 1009.5
20260510030520 12 0 0.0 3.2 0.05 0.53 0.53 98 1009.5
20260510025517 12 0.0 0.0 0.05 0.53 0.53 98 1009.7
20260510024614 12 0.0 0.0 0.05 0.53 0.53 97 1009.8
20260510023610 12 0.0 0.0 0.03 0.51 0.51 97 1009.9
20260510022607 12 0.0 3.2 0.05 0.51 0.51 97 1009.8
20260510021603 12 323 1.6 3.2 0.10 0.51 0.51 97 1009.8
20260510020600 12 349 3.2 6.4 0.13 0.48 0.48 97 1009.7
20260510015618 12 0 0.0 3.2 0.15 0.48 0.48 97 1009.7
20260510014555 12 342 1.6 3.2 0.15 0.48 0.48 96 1010.0
20260510013551 12 0 1.6 3.2 0.18 0.48 0.48 96 1010.1
20260510012549 12 0 1.6 3.2 0.30 0.46 0.46 96 1010.1
20260510011546 12 0.0 3.2 0.38 0.43 0.43 95 1010.1
20260510010543 12 139 1.6 3.2 0.36 0.36 0.36 95 1010.3
20260510005540 12 137 1.6 3.2 0.33 0.33 0.33 95 1010.2
20260510004538 12 138 1.6 3.2 0.33 0.33 0.33 95 1010.2
20260510003535 12 123 1.6 6.4 0.30 0.30 0.30 94 1010.2
20260510002552 12 195 3.2 11.3 0.15 0.15 0.15 93 1010.5
20260510001530 13 0.0 0.0 0.03 0.03 0.03 92 1009.9
20260510000526 13 0.0 0.0 0.00 0.00 0.00 90 1009.7
20260509235544 13 0 0.0 3.2 0.00 0.00 0.00 89 1009.9
20260509234541 13 54 1.6 6.4 0.00 0.00 0.00 86 1009.8
20260509233518 13 109 1.6 6.4 0.00 0.00 0.00 85 1009.9
20260509232517 13 11 0.0 3.2 0.00 0.00 0.00 87 1010.0
20260509231613 13 0.0 0.0 0.00 0.00 0.00 85 1010.0
20260509230610 13 0.0 3.2 0.00 0.00 0.00 85 1009.9
20260509225607 13 0 1.6 3.2 0.00 0.00 0.00 84 1009.9
20260509224605 13 0.0 3.2 0.00 0.00 0.00 82 1009.7
20260509223602 13 248 0.0 3.2 0.00 0.00 0.00 83 1009.8
20260509222559 13 0.0 3.2 0.00 0.00 0.00 83 1009.8
20260509221556 13 0.0 0.0 0.00 0.00 0.00 83 1009.8
20260509220614 13 0.0 3.2 0.00 0.00 0.00 82 1009.7
20260509215611 13 0.0 0.0 0.00 0.00 0.00 83 1009.7
20260509214548 13 0.0 0.0 0.00 0.00 0.00 83 1009.8
20260509213546 13 0.0 0.0 0.00 0.00 0.00 82 1009.8
20260509212543 13 0.0 0.0 0.00 0.00 0.00 81 1009.7
20260509211540 13 0.0 0.0 0.00 0.00 0.00 78 1009.7
20260509210537 14 0 0.0 3.2 0.00 0.00 0.00 77 1009.6
20260509205535 15 293 0.0 3.2 0.00 0.00 0.00 75 1009.8
20260509204532 15 0.0 3.2 0.00 0.00 0.00 70 1009.6
20260509203529 16 146 1.6 6.4 0.00 0.00 0.00 62 1009.9
20260509202526 15 0 0.0 3.2 0.00 0.00 0.00 68 1009.9
20260509201604 16 105 1.6 6.4 0.00 0.00 0.00 63 1009.9
20260509200521 16 122 1.6 6.4 0.00 0.00 0.00 62 1009.9
20260509195540 16 135 1.6 6.4 0.00 0.00 0.00 62 1009.8
20260509194515 15 165 1.6 6.4 0.00 0.00 0.00 64 1009.6
20260509193613 15 0.0 0.0 0.00 0.00 0.00 71 1009.4
20260509192610 15 0.0 0.0 0.00 0.00 0.00 69 1009.2
20260509191607 15 0.0 0.0 0.00 0.00 0.00 71 1009.2
20260509190630 16 0.0 0.0 0.00 0.00 0.00 67 1009.2
20260509185602 16 0.0 0.0 0.00 0.00 0.00 63 1008.9
20260509184600 17 0.0 0.0 0.00 0.00 0.00 64 1008.9
20260509183556 17 145 1.6 3.2 0.00 0.00 0.00 58 1008.9
20260509182554 17 113 1.6 3.2 0.00 0.00 0.00 58 1008.8
20260509181611 18 113 1.6 3.2 0.00 0.00 0.00 58 1008.8
20260509180548 18 135 1.6 3.2 0.00 0.00 0.00 55 1008.8
20260509175547 18 136 1.6 3.2 0.00 0.00 0.00 55 1008.7
20260509174543 18 170 1.6 3.2 0.00 0.00 0.00 53 1008.7
20260509173540 19 141 1.6 3.2 0.00 0.00 0.00 53 1008.7
20260509172558 19 130 1.6 6.4 0.00 0.00 0.00 51 1008.7
20260509171534 20 175 0.0 3.2 0.00 0.00 0.00 53 1008.7
20260509170531 20 165 0.0 3.2 0.00 0.00 0.00 51 1008.9
20260509165529 20 169 1.6 6.4 0.00 0.00 0.00 49 1009.0
20260509164606 20 172 3.2 9.7 0.00 0.00 0.00 49 1009.0
20260509163524 20 153 3.2 9.7 0.00 0.00 0.00 49 1009.2
20260509162541 20 184 3.2 6.4 0.00 0.00 0.00 49 1009.0
20260509161518 21 171 3.2 11.3 0.00 0.00 0.00 47 1009.3
20260509160536 21 193 3.2 12.9 0.00 0.00 0.00 48 1009.2
20260509155734 21 180 1.6 6.4 0.00 0.00 0.00 48 1009.1
20260509154610 22 167 1.6 12.9 0.00 0.00 0.00 47 1009.3
20260509153607 22 160 1.6 3.2 0.00 0.00 0.00 46 1009.2
20260509152604 22 173 3.2 6.4 0.00 0.00 0.00 46 1009.2
20260509151602 23 185 1.6 6.4 0.00 0.00 0.00 45 1009.4
20260509150559 23 164 1.6 3.2 0.00 0.00 0.00 44 1009.4
20260509145556 24 176 1.6 6.4 0.00 0.00 0.00 43 1009.4
20260509144553 24 188 3.2 9.7 0.00 0.00 0.00 42 1009.5
20260509143550 24 203 1.6 3.2 0.00 0.00 0.00 43 1009.5
20260509142548 23 166 3.2 11.3 0.00 0.00 0.00 43 1009.6
20260509141546 24 177 3.2 6.4 0.00 0.00 0.00 43 1009.7
20260509140542 23 163 3.2 6.4 0.00 0.00 0.00 43 1009.8
20260509135540 23 184 4.8 14.5 0.00 0.00 0.00 42 1010.0
20260509134557 23 168 8.0 20.9 0.00 0.00 0.00 41 1010.1
20260509133534 25 192 1.6 6.4 0.00 0.00 0.00 41 1010.2
20260509132531 24 161 4.8 14.5 0.00 0.00 0.00 42 1010.2
20260509131608 24 171 3.2 12.9 0.00 0.00 0.00 43 1010.3
20260509130526 25 189 4.8 14.5 0.00 0.00 0.00 45 1010.4
20260509125523 24 114 1.6 6.4 0.00 0.00 0.00 45 1010.4
20260509124521 25 170 1.6 3.2 0.00 0.00 0.00 46 1010.7
20260509123518 23 198 4.8 12.9 0.00 0.00 0.00 44 1010.8
20260509122515 24 174 4.8 17.7 0.00 0.00 0.00 43 1011.0
20260509121612 23 171 3.2 9.7 0.00 0.00 0.00 44 1010.9
20260509120629 22 180 6.4 9.7 0.00 0.00 0.00 45 1011.0
20260509115607 23 170 3.2 12.9 0.00 0.00 0.00 41 1011.2
20260509114604 22 159 4.8 12.9 0.00 0.00 0.00 45 1011.2
20260509113601 22 169 8.0 14.5 0.00 0.00 0.00 42 1011.5
20260509112558 23 131 3.2 11.3 0.00 0.00 0.00 45 1011.4
20260509111555 23 93 1.6 6.4 0.00 0.00 0.00 48 1011.6
20260509110552 22 123 3.2 11.3 0.00 0.00 0.00 47 1011.7
20260509105550 23 186 1.6 3.2 0.00 0.00 0.00 50 1011.7
20260509104547 22 247 1.6 3.2 0.00 0.00 0.00 50 1011.6
20260509103549 21 203 1.6 3.2 0.00 0.00 0.00 50 1011.7
20260509102541 22 171 1.6 3.2 0.00 0.00 0.00 48 1012.0
20260509101538 22 204 1.6 6.4 0.00 0.00 0.00 50 1012.1
20260509100536 22 225 0.0 3.2 0.00 0.00 0.00 48 1012.1
20260509095534 21 197 1.6 3.2 0.00 0.00 0.00 52 1012.2
20260509094531 21 232 1.6 3.2 0.00 0.00 0.00 53 1012.4
20260509093528 21 248 0.0 3.2 0.00 0.00 0.00 54 1012.6
20260509092525 20 225 0.0 3.2 0.00 0.00 0.00 52 1012.8
20260509091522 20 222 1.6 6.4 0.00 0.00 0.00 56 1012.8
20260509090520 19 315 0.0 3.2 0.00 0.00 0.00 59 1013.0
20260509085519 17 7 1.6 6.4 0.00 0.00 0.00 65 1013.1
20260509084615 17 306 3.2 6.4 0.00 0.00 0.00 67 1013.1
20260509083612 17 15 1.6 3.2 0.00 0.00 0.00 71 1013.2
20260509082610 17 321 1.6 6.4 0.00 0.00 0.00 73 1013.3
20260509081607 16 345 0.0 3.2 0.00 0.00 0.00 75 1013.4
20260509080608 16 273 3.2 6.4 0.00 0.00 0.00 78 1013.3
20260509075623 15 270 1.6 6.4 0.00 0.00 0.00 79 1013.4
20260509074601 15 19 1.6 6.4 0.00 0.00 0.00 82 1013.5
20260509073555 14 285 1.6 6.4 0.00 0.00 0.00 82 1013.6
20260509072612 13 277 1.6 6.4 0.00 0.00 0.00 84 1013.6
20260509071549 12 324 1.6 3.2 0.00 0.00 0.00 89 1013.6
20260509070548 11 338 0.0 3.2 0.00 0.00 0.00 96 1013.6
20260509065545 11 338 0.0 3.2 0.00 0.00 0.00 98 1013.6
20260509064542 10 354 0.0 3.2 0.00 0.00 0.00 98 1013.6
20260509063539 9 0.0 0.0 0.00 0.00 0.00 98 1013.8
20260509062536 9 0.0 0.0 0.00 0.00 0.00 98 1013.8
20260509061534 9 0.0 0.0 0.00 0.00 0.00 98 1013.9
20260509060530 8 0.0 0.0 0.00 0.00 0.00 98 1013.8
20260509055528 8 0.0 0.0 0.00 0.00 0.00 98 1013.7
20260509054527 8 0.0 3.2 0.00 0.00 0.00 98 1013.6
20260509053523 8 0.0 3.2 0.00 0.00 0.00 98 1013.4
20260509052519 8 4 1.6 3.2 0.00 0.00 0.00 98 1013.5
20260509051516 8 23 0.0 3.2 0.00 0.00 0.00 98 1013.6
20260509050654 7 23 1.6 3.2 0.00 0.00 0.00 98 1013.5
20260509045611 8 0 0.0 3.2 0.00 0.00 0.00 98 1013.5
20260509044608 8 0.0 3.2 0.00 0.00 0.00 98 1013.5